�N����,����,����,����,����,�C��,���x,�~����,���Ǝ���,�S�V����,�ő�u�ԕ���,,,
,,,,,,,,,,����,����,����,�N��
yyyy/mm/dd,hh:mm:ss,(16),16����,m/s,��,%,mm,min,KW/�u,(16),16����,m/s,Time
2011/12/1,1:00:00,315,�k��,2.2,-5.5,67,0,0,0.01,338,�k�k��,5.6,5
2011/12/1,2:00:00,293,���k��,2.3,-6.6,76,0,0,0.01,270,��,3.7,32
2011/12/1,3:00:00,293,���k��,3.8,-7.9,81.8,0,0,0.01,293,���k��,4.6,54
2011/12/1,4:00:00,293,���k��,3.2,-8.2,81.9,0,0,0.01,293,���k��,4.4,28
2011/12/1,5:00:00,293,���k��,0.4,-9.5,83.6,0,0,0.01,293,���k��,3.2,0
2011/12/1,6:00:00,293,���k��,2.1,-10.2,88.7,0,0,0.01,293,���k��,2.7,56
2011/12/1,7:00:00,270,��,1.9,-9.6,88.4,0,0,0.01,315,�k��,2.8,23
2011/12/1,8:00:00,293,���k��,2.6,-6.7,77.9,0,36,0.13,293,���k��,3.6,1
2011/12/1,9:00:00,293,���k��,1.3,-3.2,66.4,0,60,0.29,293,���k��,4.1,4
2011/12/1,10:00:00,315,�k��,1.3,-0.6,48.3,0,60,0.42,338,�k�k��,2.6,50
2011/12/1,11:00:00,158,��쓌,1,1.3,41.2,0,60,0.5,180,��,3.5,59
2011/12/1,12:00:00,90,��,1.9,1.4,34.4,0,60,0.51,113,���쓌,4.3,58
2011/12/1,13:00:00,90,��,1.8,1.5,37.3,0,60,0.47,45,�k��,5.2,59
2011/12/1,14:00:00,135,�쓌,0.4,0.8,47.4,0,60,0.36,68,���k��,4.7,0
2011/12/1,15:00:00,338,�k�k��,2.9,-0.2,47.3,0,60,0.21,293,���k��,5.6,47
2011/12/1,16:00:00,23,�k�k��,1.5,-1.8,47.9,0,4,0.06,338,�k�k��,5,32
2011/12/1,17:00:00,45,�k��,0.9,-3.2,51,0,0,0.01,45,�k��,2.2,33
2011/12/1,18:00:00,293,���k��,1.2,-4.8,63.9,0,0,0.01,338,�k�k��,3.2,30
2011/12/1,19:00:00,338,�k�k��,1.3,-4.4,61.5,0,0,0.01,338,�k�k��,3.6,59
2011/12/1,20:00:00,338,�k�k��,1.8,-4.4,62.5,0,0,0.01,315,�k��,4.8,36
2011/12/1,21:00:00,270,��,1.5,-6,72.1,0,0,0.01,315,�k��,3.3,0
2011/12/1,22:00:00,270,��,2.5,-7.3,77.8,0,0,0.01,293,���k��,3.4,56
2011/12/1,23:00:00,315,�k��,3.7,-6.9,75.7,0,0,0.01,315,�k��,5.6,56
2011/12/1,0:00:00,293,���k��,3.8,-7.3,78.1,0,0,0.01,315,�k��,5.8,23
2011/12/2,1:00:00,315,�k��,3.2,-7.7,77.2,0,0,0.01,293,���k��,5.9,8
2011/12/2,2:00:00,315,�k��,2.4,-6.8,72,0,0,0.01,315,�k��,6.6,13
2011/12/2,3:00:00,360,�k,3.3,-5,63.5,0,0,0.01,315,�k��,5.7,12
2011/12/2,4:00:00,338,�k�k��,0.9,-6.2,65.9,0,0,0.01,360,�k,5.9,20
2011/12/2,5:00:00,360,�k,0.8,-8.1,74.8,0,0,0.01,338,�k�k��,3.1,4
2011/12/2,6:00:00,315,�k��,2.3,-7.4,76.3,0,0,0.01,315,�k��,3.7,54
2011/12/2,7:00:00,293,���k��,1.5,-9.1,82.9,0,0,0.01,315,�k��,4.1,9
2011/12/2,8:00:00,293,���k��,2.2,-6.1,75.3,0,33,0.13,293,���k��,3.1,19
2011/12/2,9:00:00,315,�k��,2.5,-3.3,67.2,0,60,0.28,315,�k��,4.6,52
2011/12/2,10:00:00,315,�k��,1.8,-2.3,56.1,0,60,0.41,315,�k��,4,4
2011/12/2,11:00:00,248,���쐼,1.8,-1.1,52.7,0,60,0.49,338,�k�k��,4.8,39
2011/12/2,12:00:00,293,���k��,1.7,-0.2,42.3,0,60,0.51,338,�k�k��,3.6,5
2011/12/2,13:00:00,113,���쓌,2.4,0.8,38.6,0,60,0.46,135,�쓌,4.6,54
2011/12/2,14:00:00,113,���쓌,1.3,0.6,36.4,0,60,0.36,135,�쓌,4.4,0
2011/12/2,15:00:00,135,�쓌,1.5,-0.2,38.5,0,60,0.21,135,�쓌,3.1,37
2011/12/2,16:00:00,225,�쐼,0.5,-2.9,65,0,3,0.06,158,��쓌,2.2,0
2011/12/2,17:00:00,293,���k��,1,-4.7,73.2,0,0,0.01,293,���k��,1.5,30
2011/12/2,18:00:00,293,���k��,1.5,-5.8,76.3,0,0,0.01,293,���k��,2.3,50
2011/12/2,19:00:00,293,���k��,2.1,-6.3,78.2,0,0,0.01,293,���k��,2.6,59
2011/12/2,20:00:00,293,���k��,2.2,-7.4,82.4,0,0,0.01,293,���k��,3.1,24
2011/12/2,21:00:00,293,���k��,2.4,-6,77.1,0,0,0.01,315,�k��,3.7,58
2011/12/2,22:00:00,293,���k��,2.5,-5.2,75.9,0,0,0.01,315,�k��,3.9,1
2011/12/2,23:00:00,293,���k��,1.8,-4,69.6,0,0,0.01,293,���k��,4,25
2011/12/2,0:00:00,360,�k,0.9,-4.2,74,0,0,0.01,315,�k��,3.4,6
2011/12/3,1:00:00,315,�k��,2.2,-4.5,74.9,0,0,0.01,315,�k��,4,45
2011/12/3,2:00:00,315,�k��,3,-4.8,75.6,0,0,0.01,315,�k��,5.2,49
2011/12/3,3:00:00,315,�k��,4,-5.1,75.1,0,0,0.01,315,�k��,6.6,47
2011/12/3,4:00:00,293,���k��,4.2,-4.7,73.5,0,0,0.01,315,�k��,6.9,23
2011/12/3,5:00:00,315,�k��,4.2,-4.2,71.1,0,0,0.01,315,�k��,6.9,24
2011/12/3,6:00:00,315,�k��,2.2,-3.5,69.3,0,0,0.01,315,�k��,5.6,3
2011/12/3,7:00:00,315,�k��,2.9,-3.1,67.4,0,0,0.01,293,���k��,5.3,36
2011/12/3,8:00:00,315,�k��,2.5,-2.1,63.4,0,0,0.04,338,�k�k��,5.3,59
2011/12/3,9:00:00,360,�k,1.5,-1,61.5,0,15,0.11,338,�k�k��,5.3,3
2011/12/3,10:00:00,315,�k��,3.4,-1.3,61.7,0,6,0.1,315,�k��,5.6,59
2011/12/3,11:00:00,315,�k��,3.7,-1.2,64.3,0,15,0.11,315,�k��,6.3,34
2011/12/3,12:00:00,315,�k��,3.3,-1,66.7,0,0,0.06,315,�k��,5.5,59
2011/12/3,13:00:00,315,�k��,3.7,-1.5,77.7,0,0,0.03,315,�k��,6,58
2011/12/3,14:00:00,315,�k��,4,-2.3,92.7,0,0,0.03,315,�k��,7.7,33
2011/12/3,15:00:00,338,�k�k��,2.5,-2,96.5,0.5,0,0.02,315,�k��,6.8,8
2011/12/3,16:00:00,315,�k��,4.2,-1.9,97.2,1.5,0,0.01,293,���k��,7.3,54
2011/12/3,17:00:00,315,�k��,4.2,-2,97.3,1,0,0.01,315,�k��,7.5,51
2011/12/3,18:00:00,315,�k��,4.2,-1.9,97.5,1,0,0.01,315,�k��,8.2,52
2011/12/3,19:00:00,315,�k��,5,-1.5,98.1,1.5,0,0.01,315,�k��,9,59
2011/12/3,20:00:00,315,�k��,5.3,-1.1,98.2,1.5,0,0.01,338,�k�k��,9,58
2011/12/3,21:00:00,315,�k��,5.4,-0.5,98.2,2,0,0.01,293,���k��,9.2,16
2011/12/3,22:00:00,338,�k�k��,3.2,0.1,98.3,2.5,0,0.01,293,���k��,8.6,26
2011/12/3,23:00:00,338,�k�k��,2.6,0.5,98.5,4,0,0.01,315,�k��,7.8,31
2011/12/3,0:00:00,338,�k�k��,1.8,0.3,99,7,0,0.01,360,�k,4.4,16
2011/12/4,1:00:00,315,�k��,3.3,0.3,99.3,5.5,0,0.01,315,�k��,6.3,51
2011/12/4,2:00:00,315,�k��,5.4,0.5,99.1,5,0,0.01,315,�k��,8.5,46
2011/12/4,3:00:00,315,�k��,5.2,0.9,98,4,0,0.01,315,�k��,8.4,56
2011/12/4,4:00:00,315,�k��,5.1,0.9,98,3.5,0,0.01,338,�k�k��,9.2,47
2011/12/4,5:00:00,315,�k��,4.5,1.2,96.4,3,0,0.01,315,�k��,9.2,8
2011/12/4,6:00:00,315,�k��,5.6,1.3,95.8,0.5,0,0.01,315,�k��,8.4,39
2011/12/4,7:00:00,315,�k��,3.4,1.2,96.9,1.5,0,0.01,315,�k��,8.6,5
2011/12/4,8:00:00,315,�k��,3.2,1.8,94.4,0,0,0.03,338,�k�k��,6.1,12
2011/12/4,9:00:00,315,�k��,2,2.2,93.8,0,8,0.09,315,�k��,7,14
2011/12/4,10:00:00,315,�k��,1.6,2.5,93.2,0,44,0.14,293,���k��,3.4,0
2011/12/4,11:00:00,293,���k��,2.5,2.4,90.2,0,60,0.21,338,�k�k��,5.2,37
2011/12/4,12:00:00,23,�k�k��,1.4,2.9,93.5,0.5,60,0.21,293,���k��,3.4,3
2011/12/4,13:00:00,315,�k��,1.6,3.7,86.8,0,60,0.21,293,���k��,3,53
2011/12/4,14:00:00,360,�k,1.4,5,76.9,0,60,0.43,338,�k�k��,3.6,23
2011/12/4,15:00:00,315,�k��,1.6,3.7,81.1,0,25,0.13,360,�k,3.6,20
2011/12/4,16:00:00,293,���k��,1.9,2.9,82.3,0,0,0.03,315,�k��,4.3,26
2011/12/4,17:00:00,293,���k��,3.2,3.2,80.5,0,0,0.01,293,���k��,5.1,50
2011/12/4,18:00:00,338,�k�k��,3.8,2.7,76.2,0,0,0,315,�k��,7.7,16
2011/12/4,19:00:00,315,�k��,5.4,3.2,70.4,0,0,0.01,293,���k��,8.7,58
2011/12/4,20:00:00,315,�k��,3.3,3.3,64.3,0,0,0.01,315,�k��,7.6,1
2011/12/4,21:00:00,360,�k,1.1,2.1,67.3,0,0,0.01,293,���k��,5.4,22
2011/12/4,22:00:00,293,���k��,1.1,1.5,70.6,0,0,0.01,338,�k�k��,3,17
2011/12/4,23:00:00,270,��,3.1,-0.9,76.8,0,0,0.01,270,��,4,47
2011/12/4,0:00:00,293,���k��,2.2,-2.5,84.4,0,0,0.01,293,���k��,3.6,30
2011/12/5,1:00:00,23,�k�k��,1.8,-0.7,80.2,0,0,0.01,315,�k��,4.3,39
2011/12/5,2:00:00,248,���쐼,0.8,-1.4,85.9,0,0,0.01,158,��쓌,2.6,35
2011/12/5,3:00:00,248,���쐼,0.3,-2.2,91.3,0,0,0.01,270,��,7,35
2011/12/5,4:00:00,315,�k��,0.6,-2,94,0,0,0.01,270,��,2.1,7
2011/12/5,5:00:00,293,���k��,1.1,-1.7,91.3,0,0,0.01,23,�k�k��,2.4,17
2011/12/5,6:00:00,293,���k��,1.9,-1.2,88.1,0,0,0.01,293,���k��,3.6,46
2011/12/5,7:00:00,270,��,1.7,-1.5,90.6,0,0,0.01,293,���k��,3.3,2
2011/12/5,8:00:00,315,�k��,0.8,-0.3,84.1,0,31,0.11,225,�쐼,3.4,36
2011/12/5,9:00:00,248,���쐼,5.8,1.7,60.3,0,58,0.26,270,��,9.8,56
2011/12/5,10:00:00,270,��,7.6,1.5,48.8,0,60,0.39,270,��,11.8,59
2011/12/5,11:00:00,293,���k��,6.7,1.8,42.2,0,60,0.46,270,��,11.7,0
2011/12/5,12:00:00,338,�k�k��,4.6,2.1,46.6,0,60,0.44,315,�k��,9.3,28
2011/12/5,13:00:00,338,�k�k��,3.8,2.4,40.9,0,60,0.47,338,�k�k��,7.4,43
2011/12/5,14:00:00,338,�k�k��,1.9,2.8,41.8,0,60,0.4,315,�k��,5.8,12
2011/12/5,15:00:00,360,�k,2.5,2.4,44.1,0,43,0.17,360,�k,4.5,54
2011/12/5,16:00:00,338,�k�k��,1.8,0.3,55.2,0,0,0.04,315,�k��,4.2,39
2011/12/5,17:00:00,315,�k��,2,-1.7,66.8,0,0,0.01,338,�k�k��,4.5,10
2011/12/5,18:00:00,315,�k��,2.6,-2.6,70.9,0,0,0.01,315,�k��,4.7,25
2011/12/5,19:00:00,180,��,0.7,-3.9,78.5,0,0,0.01,315,�k��,4.3,12
2011/12/5,20:00:00,270,��,0.8,-7.6,89.2,0,0,0.01,180,��,1.8,14
2011/12/5,21:00:00,293,���k��,1.8,-8.3,88.6,0,0,0.01,270,��,2.9,52
2011/12/5,22:00:00,293,���k��,2.9,-8,90.6,0,0,0.01,270,��,3.6,52
2011/12/5,23:00:00,293,���k��,3.1,-8.7,86.5,0,0,0.01,315,�k��,4.4,29
2011/12/5,0:00:00,293,���k��,2.2,-8.8,85.5,0,0,0.01,315,�k��,3.9,16
2011/12/6,1:00:00,293,���k��,2.6,-8.8,87.8,0,0,0.01,315,�k��,4.3,36
2011/12/6,2:00:00,270,��,2.8,-9.8,86.6,0,0,0.01,248,���쐼,4.4,58
2011/12/6,3:00:00,315,�k��,2.9,-7,72.6,0,0,0.01,293,���k��,5.2,15
2011/12/6,4:00:00,293,���k��,2.4,-7.1,74.8,0,0,0.01,315,�k��,3.5,59
2011/12/6,5:00:00,270,��,1.7,-10.4,81.3,0,0,0.01,315,�k��,3,4
2011/12/6,6:00:00,315,�k��,2.4,-10,91.6,0,0,0.01,315,�k��,3.3,58
2011/12/6,7:00:00,270,��,2.1,-11.8,87.4,0,0,0.01,315,�k��,4.1,34
2011/12/6,8:00:00,293,���k��,1.6,-10.5,82.8,0,26,0.11,315,�k��,3.7,17
2011/12/6,9:00:00,293,���k��,1.4,-7.4,77.1,0,60,0.27,315,�k��,3.2,16
2011/12/6,10:00:00,270,��,1.7,-2.9,63,0,60,0.4,270,��,2,55
2011/12/6,11:00:00,90,��,1.2,2.3,68.5,0,60,0.48,90,��,2.2,57
2011/12/6,12:00:00,45,�k��,1.2,2.9,61.5,0,60,0.5,45,�k��,2.3,18
2011/12/6,13:00:00,45,�k��,2.1,2.5,60.8,0,60,0.46,45,�k��,3.5,31
2011/12/6,14:00:00,90,��,2.3,2.4,62.4,0,60,0.35,90,��,4.3,43
2011/12/6,15:00:00,68,���k��,1.5,1.3,68.4,0,60,0.21,90,��,2.8,29
2011/12/6,16:00:00,45,�k��,1.8,0.1,68.9,0,12,0.05,45,�k��,3.1,18
2011/12/6,17:00:00,315,�k��,1.2,-3.8,81.3,0,0,0.01,23,�k�k��,2.6,1
2011/12/6,18:00:00,293,���k��,2.1,-2.9,76.9,0,0,0.01,293,���k��,3.1,50
2011/12/6,19:00:00,293,���k��,1.2,-5.2,78,0,0,0.01,270,��,2.4,26
2011/12/6,20:00:00,315,�k��,2.5,-3.9,76.3,0,0,0.01,315,�k��,4.2,47
2011/12/6,21:00:00,315,�k��,2.8,-3.2,75.4,0,0,0.01,315,�k��,3.7,48
2011/12/6,22:00:00,270,��,2.1,-4.4,79.2,0,0,0.01,315,�k��,3.3,0
2011/12/6,23:00:00,293,���k��,1.4,-5.2,80.9,0,0,0.01,270,��,3,41
2011/12/6,0:00:00,293,���k��,2.5,-5.6,82.7,0,0,0.01,315,�k��,3.3,53
2011/12/7,1:00:00,315,�k��,1.8,-4.7,78.7,0,0,0.01,315,�k��,3.3,10
2011/12/7,2:00:00,293,���k��,2.5,-5.6,84.2,0,0,0.01,293,���k��,4.5,57
2011/12/7,3:00:00,293,���k��,2.3,-5.6,84.9,0,0,0.01,270,��,3.5,56
2011/12/7,4:00:00,293,���k��,1.3,-6,82.4,0,0,0.01,293,���k��,3.4,42
2011/12/7,5:00:00,293,���k��,2.4,-6.7,83.7,0,0,0.01,293,���k��,3.3,59
2011/12/7,6:00:00,293,���k��,2,-7.6,84.9,0,0,0.01,293,���k��,3.7,7
2011/12/7,7:00:00,293,���k��,1.8,-8.3,87.8,0,0,0.01,293,���k��,3.4,41
2011/12/7,8:00:00,293,���k��,1.5,-7,81.4,0,0,0.05,293,���k��,3.2,5
2011/12/7,9:00:00,293,���k��,2.2,-5,75.7,0,46,0.19,270,��,3.6,37
2011/12/7,10:00:00,315,�k��,2.9,-1.3,61.1,0,60,0.38,315,�k��,4.3,54
2011/12/7,11:00:00,248,�É�,0.2,1.2,59.1,0,60,0.46,315,�k��,4.5,6
2011/12/7,12:00:00,68,���k��,0.8,3.3,61,0,60,0.46,90,��,1.6,42
2011/12/7,13:00:00,90,�É�,0,4.3,58.6,0,60,0.41,68,���k��,1.4,4
2011/12/7,14:00:00,113,���쓌,2.1,2.4,71.7,0,60,0.31,113,���쓌,2.7,51
2011/12/7,15:00:00,270,��,0.6,1.9,69.4,0,58,0.19,113,���쓌,1.9,6
2011/12/7,16:00:00,293,���k��,1.3,-2.1,83.7,0,0,0.04,293,���k��,2.3,56
2011/12/7,17:00:00,293,���k��,1.9,-3,85.2,0,0,0.01,293,���k��,3.4,56
2011/12/7,18:00:00,270,��,0.9,-4.5,78.6,0,0,0.01,293,���k��,3.9,6
2011/12/7,19:00:00,315,�k��,1.7,-9.2,81.5,0,0,0.01,293,���k��,3.3,27
2011/12/7,20:00:00,270,��,1.3,-7.3,87.8,0,0,0.01,248,���쐼,3.6,40
2011/12/7,21:00:00,315,�k��,1.9,-9.3,90.5,0,0,0.01,270,��,3.7,34
2011/12/7,22:00:00,293,���k��,0.8,-9.2,94.5,0,0,0.01,293,���k��,8,17
2011/12/7,23:00:00,270,��,1.9,-11,92.9,0,0,0.01,293,���k��,3.4,41
2011/12/7,0:00:00,270,��,2.7,-11.5,93.7,0,0,0.01,293,���k��,3.3,16
2011/12/8,1:00:00,293,���k��,1.4,-13.8,90.3,0,0,0.01,270,��,3.1,43
2011/12/8,2:00:00,315,�k��,2.5,-12.3,90.1,0,0,0.01,293,���k��,3.9,38
2011/12/8,3:00:00,315,�k��,2,-12.8,89.7,0,0,0.01,315,�k��,3,18
2011/12/8,4:00:00,293,���k��,2.3,-12.9,88.6,0,0,0.01,293,���k��,3.6,57
2011/12/8,5:00:00,293,���k��,2.5,-12.6,88.7,0,0,0.01,293,���k��,4,25
2011/12/8,6:00:00,270,��,2.7,-12.9,88.2,0,0,0.01,293,���k��,3.8,19
2011/12/8,7:00:00,315,�k��,2.1,-13.2,87.7,0,0,0.01,315,�k��,3.7,38
2011/12/8,8:00:00,293,���k��,2.5,-12.9,88.4,0,15,0.09,270,��,3.7,7
2011/12/8,9:00:00,225,�쐼,0.8,-11.2,82,0,51,0.16,293,���k��,3.7,26
2011/12/8,10:00:00,293,���k��,2.4,-7.2,73.6,0,60,0.24,270,��,3.3,48
2011/12/8,11:00:00,180,��,1.1,-2.6,56.3,0,60,0.47,293,���k��,2.9,0
2011/12/8,12:00:00,315,�k��,2.4,-0.8,43.6,0,60,0.5,338,�k�k��,4.6,57
2011/12/8,13:00:00,338,�k�k��,3.3,-0.8,42.4,0,60,0.45,338,�k�k��,6.3,54
2011/12/8,14:00:00,315,�k��,2.8,-0.9,40.8,0,60,0.35,315,�k��,5.5,2
2011/12/8,15:00:00,315,�k��,2.7,-1.3,42,0,60,0.21,338,�k�k��,5,57
2011/12/8,16:00:00,338,�k�k��,1.8,-3.1,50.4,0,3,0.05,338,�k�k��,5.1,6
2011/12/8,17:00:00,315,�k��,1.4,-4.7,56,0,0,0.01,338,�k�k��,4.1,42
2011/12/8,18:00:00,315,�k��,2.4,-4,51.8,0,0,0.01,338,�k�k��,5.1,34
2011/12/8,19:00:00,338,�k�k��,3.5,-4.1,56.1,0,0,0.01,338,�k�k��,7.4,27
2011/12/8,20:00:00,315,�k��,3.4,-5.8,64.5,0,0,0.01,315,�k��,6.4,4
2011/12/8,21:00:00,315,�k��,1.3,-7.6,68.5,0,0,0.01,293,���k��,6.1,1
2011/12/8,22:00:00,315,�k��,3.8,-7.7,69.1,0,0,0.01,315,�k��,5.5,58
2011/12/8,23:00:00,293,���k��,2.4,-10.7,77,0,0,0.01,315,�k��,6.2,1
2011/12/8,0:00:00,293,���k��,2.2,-12.4,78.1,0,0,0.01,293,���k��,3.4,54
2011/12/9,1:00:00,315,�k��,1.1,-12.3,75.2,0,0,0.01,293,���k��,3.2,48
2011/12/9,2:00:00,338,�k�k��,2.3,-10.4,67.8,0,0,0.01,315,�k��,4.9,59
2011/12/9,3:00:00,315,�k��,4.4,-10.3,65.8,0,0,0.01,315,�k��,6.6,48
2011/12/9,4:00:00,315,�k��,3,-10.8,71.6,0,0,0.01,338,�k�k��,5.9,43
2011/12/9,5:00:00,315,�k��,4.1,-11.9,71.9,0,0,0.01,315,�k��,6.1,46
2011/12/9,6:00:00,315,�k��,2.7,-11.9,73.6,0,0,0.01,293,���k��,5.7,31
2011/12/9,7:00:00,293,���k��,2.3,-13.6,76.2,0,0,0.01,293,���k��,4,45
2011/12/9,8:00:00,315,�k��,1.6,-12.2,66,0,27,0.11,315,�k��,4,25
2011/12/9,9:00:00,293,���k��,2.3,-9,57.6,0,60,0.27,293,���k��,3.5,51
2011/12/9,10:00:00,293,���k��,1.2,-6.6,52.9,0,60,0.4,293,���k��,3.7,25
2011/12/9,11:00:00,113,���쓌,0.3,-0.2,36,0,60,0.48,315,�k��,4.1,6
2011/12/9,12:00:00,180,��,0.9,-1.1,29,0,60,0.51,158,��쓌,2.1,59
2011/12/9,13:00:00,45,�É�,0.1,0.7,30.4,0,60,0.46,135,�쓌,2,5
2011/12/9,14:00:00,113,���쓌,1.6,-0.5,29.9,0,60,0.35,113,���쓌,2.9,31
2011/12/9,15:00:00,45,�É�,0,-2.1,30.5,0,57,0.2,90,��,2.3,3
2011/12/9,16:00:00,315,�k��,1.3,-3.2,41.9,0,2,0.05,338,�k�k��,2.5,40
2011/12/9,17:00:00,315,�k��,0.7,-7.4,60.8,0,0,0.01,23,�k�k��,2.4,33
2011/12/9,18:00:00,270,��,1.7,-10.5,70.9,0,0,0.01,293,���k��,2.4,46
2011/12/9,19:00:00,293,���k��,2,-10.3,76.1,0,0,0.01,293,���k��,2.8,51
2011/12/9,20:00:00,270,��,2,-10.5,79.7,0,0,0.01,293,���k��,2.9,7
2011/12/9,21:00:00,293,���k��,1.1,-12.4,82,0,0,0.01,293,���k��,2.9,21
2011/12/9,22:00:00,293,���k��,1.6,-13.2,80.2,0,0,0.01,315,�k��,3.2,33
2011/12/9,23:00:00,293,���k��,2.4,-13.7,84.9,0,0,0.01,270,��,3.3,0
2011/12/9,0:00:00,293,���k��,2.3,-12.7,84.8,0,0,0.01,270,��,3.5,59
2011/12/10,1:00:00,293,���k��,3.2,-12.9,79.3,0,0,0.01,293,���k��,4.7,6
2011/12/10,2:00:00,270,��,2.5,-13.6,85,0,0,0.01,270,��,4,54
2011/12/10,3:00:00,293,���k��,3.1,-14.3,87.9,0,0,0.01,270,��,5,49
2011/12/10,4:00:00,293,���k��,3,-14.6,86.7,0,0,0.01,270,��,6.8,13
2011/12/10,5:00:00,293,���k��,2.6,-15.3,88.5,0,0,0.01,270,��,4.1,51
2011/12/10,6:00:00,270,��,2,-15.4,89.1,0,0,0.01,270,��,4.1,6
2011/12/10,7:00:00,293,���k��,3.3,-15.9,87.3,0,0,0.01,270,��,4.9,38
2011/12/10,8:00:00,270,��,3.3,-13.4,80.8,0,25,0.11,270,��,4.7,28
2011/12/10,9:00:00,293,���k��,3,-9.8,71.5,0,60,0.26,293,���k��,5.5,53
2011/12/10,10:00:00,203,��쐼,1.3,-3.9,59.3,0,60,0.39,270,��,6.4,10
2011/12/10,11:00:00,248,���쐼,4.2,-0.4,50.4,0,60,0.34,248,���쐼,6.3,53
2011/12/10,12:00:00,225,�쐼,3.9,1.4,50.5,0,25,0.19,225,�쐼,6.1,36
2011/12/10,13:00:00,270,��,3.6,3.2,42.6,0,60,0.46,270,��,7.4,23
2011/12/10,14:00:00,270,��,6.3,3.2,41.2,0,60,0.35,248,���쐼,9.8,57
2011/12/10,15:00:00,270,��,5.1,2.6,45.9,0,60,0.21,270,��,11.7,32
2011/12/10,16:00:00,203,��쐼,2.3,1.8,53.9,0,3,0.04,248,���쐼,5.2,13
2011/12/10,17:00:00,248,���쐼,3,-0.9,71.4,0,0,0.01,225,�쐼,4.7,34
2011/12/10,18:00:00,270,��,3.6,1.2,65.4,0,0,0.01,248,���쐼,6.9,41
2011/12/10,19:00:00,225,�쐼,3.4,1.3,64.1,0,0,0.01,225,�쐼,6.3,22
2011/12/10,20:00:00,225,�쐼,2.2,1.9,57.9,0,0,0.01,203,��쐼,5.2,33
2011/12/10,21:00:00,203,��쐼,2.8,2.7,61.4,0,0,0.01,203,��쐼,6.4,30
2011/12/10,22:00:00,203,��쐼,2.8,2.1,75,0,0,0.01,180,��,5.8,30
2011/12/10,23:00:00,203,��쐼,1.8,1.7,73.8,0,0,0.01,180,��,4.2,18
2011/12/10,0:00:00,315,�k��,2.5,-1.8,77.8,0,0,0.01,270,��,6.3,38
2011/12/11,1:00:00,293,���k��,2.1,-2.5,80.8,0,0,0.01,293,���k��,6.4,27
2011/12/11,2:00:00,203,��쐼,2.2,-2.2,87.7,0,0,0.01,203,��쐼,3.5,56
2011/12/11,3:00:00,225,�쐼,3.3,-0.1,72.9,0,0,0.01,203,��쐼,5.5,51
2011/12/11,4:00:00,248,���쐼,1.2,-4,81.5,0,0,0.01,248,���쐼,5.5,17
2011/12/11,5:00:00,270,��,1.9,-6,93.1,0,0,0.01,293,���k��,3,56
2011/12/11,6:00:00,225,�쐼,2.4,-0.9,71.6,0,0,0.01,270,��,5.7,9
2011/12/11,7:00:00,315,�k��,0.6,-4.4,79.2,0,0,0.01,293,���k��,7.8,53
2011/12/11,8:00:00,248,���쐼,1.8,-7.8,83.4,0,2,0.05,270,��,5.5,7
2011/12/11,9:00:00,225,�쐼,2.4,0.5,76.1,0,50,0.14,203,��쐼,4.3,40
2011/12/11,10:00:00,248,���쐼,1.8,-2.6,79.4,0,60,0.17,270,��,3.1,40
2011/12/11,11:00:00,270,��,3.4,1.1,75.6,0,60,0.23,248,���쐼,6.7,31
2011/12/11,12:00:00,270,��,2.9,2.2,59.8,0,60,0.42,270,��,5.6,5
2011/12/11,13:00:00,338,�k�k��,4,2.6,53,0,60,0.45,293,���k��,8.4,46
2011/12/11,14:00:00,315,�k��,4.4,0.8,61.3,0,55,0.27,338,�k�k��,9.7,1
2011/12/11,15:00:00,338,�k�k��,2.5,0.3,60.7,0,55,0.19,338,�k�k��,8,0
2011/12/11,16:00:00,315,�k��,2.1,-1.2,59,0,1,0.04,338,�k�k��,6.3,1
2011/12/11,17:00:00,248,���쐼,1.8,-3,66.9,0,0,0.01,315,�k��,3.3,2
2011/12/11,18:00:00,113,�É�,0.2,-4.4,68.5,0,0,0.01,203,��쐼,2.3,6
2011/12/11,19:00:00,270,��,1.3,-8.6,80.1,0,0,0.01,248,���쐼,2.5,8
2011/12/11,20:00:00,293,���k��,0.8,-9.4,77.1,0,0,0.01,270,��,2.7,57
2011/12/11,21:00:00,293,���k��,1.8,-9,83.9,0,0,0.01,270,��,3.6,23
2011/12/11,22:00:00,270,��,2.4,-9,77.2,0,0,0.01,293,���k��,3.8,21
2011/12/11,23:00:00,293,���k��,2.4,-11.7,81.9,0,0,0.01,270,��,3.6,49
2011/12/11,0:00:00,293,���k��,2.1,-12.3,85,0,0,0.01,270,��,3.6,53
2011/12/12,1:00:00,270,��,2.4,-13,81.8,0,0,0.01,293,���k��,4.1,30
2011/12/12,2:00:00,315,�k��,2.5,-11.8,82.7,0,0,0.01,293,���k��,4.9,32
2011/12/12,3:00:00,270,��,2.1,-14.2,83.4,0,0,0.01,293,���k��,5.2,7
2011/12/12,4:00:00,293,���k��,2.6,-12.8,84.2,0,0,0.01,270,��,4.3,45
2011/12/12,5:00:00,293,���k��,2.6,-12.1,88,0,0,0.01,270,��,4.1,53
2011/12/12,6:00:00,270,��,3.1,-12.3,86.5,0,0,0.01,270,��,5.9,5
2011/12/12,7:00:00,293,���k��,2.5,-13.3,84.1,0,0,0.01,270,��,5.1,47
2011/12/12,8:00:00,315,�k��,2.1,-10.2,77,0,22,0.1,270,��,4.4,1
2011/12/12,9:00:00,293,���k��,2.4,-7.5,66.8,0,60,0.27,270,��,4.4,57
2011/12/12,10:00:00,293,���k��,1.6,-2.5,63.5,0,60,0.38,315,�k��,3.3,31
2011/12/12,11:00:00,225,�쐼,2.4,-0.3,51.7,0,60,0.47,225,�쐼,3.8,52
2011/12/12,12:00:00,248,���쐼,2.8,1,42,0,60,0.48,248,���쐼,5.1,45
2011/12/12,13:00:00,270,��,3.3,1.1,40.8,0,60,0.44,248,���쐼,6.5,29
2011/12/12,14:00:00,270,��,3.2,1.5,40.8,0,59,0.28,270,��,6.8,53
2011/12/12,15:00:00,270,��,4.2,-0.2,51.6,0,57,0.2,270,��,8.4,39
2011/12/12,16:00:00,293,���k��,3.3,-3.3,71.8,0,0,0.03,293,���k��,6.1,5
2011/12/12,17:00:00,270,��,5.2,-1.5,72.7,0,0,0.01,248,���쐼,7.6,44
2011/12/12,18:00:00,293,���k��,1.6,-3,77.2,0,0,0.01,270,��,6.8,3
2011/12/12,19:00:00,248,���쐼,2.1,-6.2,88.2,0,0,0.01,248,���쐼,2.7,55
2011/12/12,20:00:00,270,��,1.5,-8.5,90.1,0,0,0.01,315,�k��,3.7,16
2011/12/12,21:00:00,248,���쐼,3.2,-2.3,53,0,0,0.01,248,���쐼,5.9,46
2011/12/12,22:00:00,270,��,3.1,-2.5,55.8,0,0,0.01,270,��,5.2,21
2011/12/12,23:00:00,248,���쐼,3.9,-3.6,58,0,0,0.01,248,���쐼,6.1,56
2011/12/12,0:00:00,270,��,5.8,-2.1,53,0,0,0.01,270,��,8.7,20
2011/12/13,1:00:00,315,�k��,2.8,-1.9,43.7,0,0,0.01,270,��,9.6,10
2011/12/13,2:00:00,360,�k,1.5,-3.9,70.2,0,0,0.01,360,�k,4.9,46
2011/12/13,3:00:00,338,�k�k��,0.8,-7.7,82,0,0,0.01,338,�k�k��,2.8,45
2011/12/13,4:00:00,23,�k�k��,2.9,-6.8,76.9,0,0,0.01,23,�k�k��,4.8,45
2011/12/13,5:00:00,293,���k��,2.9,-9.9,71.9,0,0,0.01,23,�k�k��,5.3,22
2011/12/13,6:00:00,23,�k�k��,1.9,-8.7,74.3,0,0,0.01,293,���k��,4.4,3
2011/12/13,7:00:00,315,�k��,1,-11.3,75.9,0,0,0.01,360,�k,3.1,29
2011/12/13,8:00:00,270,��,1,-11.9,74.5,0,22,0.1,293,���k��,2.5,6
2011/12/13,9:00:00,270,��,1.6,-7.8,61.8,0,60,0.26,270,��,2.3,57
2011/12/13,10:00:00,293,�É�,0.2,-3.2,42.7,0,60,0.39,293,���k��,2.5,49
2011/12/13,11:00:00,90,��,0.6,0.9,38.4,0,60,0.48,315,�k��,1.4,0
2011/12/13,12:00:00,180,��,0.4,0.6,31.8,0,60,0.5,113,���쓌,2.2,37
2011/12/13,13:00:00,158,��쓌,1.7,-0.7,33.7,0,60,0.46,135,�쓌,3.4,36
2011/12/13,14:00:00,90,��,1.1,0.4,43.1,0,60,0.36,90,��,3.5,36
2011/12/13,15:00:00,113,���쓌,0.8,0.1,36.6,0,60,0.21,90,��,3.3,36
2011/12/13,16:00:00,90,��,0.4,-5.6,57.3,0,4,0.05,135,�쓌,1.9,25
2011/12/13,17:00:00,270,��,0.6,-8.1,75.9,0,0,0.01,23,�k�k��,1.8,29
2011/12/13,18:00:00,293,���k��,1.1,-9.1,72.7,0,0,0.01,293,���k��,2.5,46
2011/12/13,19:00:00,315,�k��,1.2,-9.8,75.7,0,0,0.01,293,���k��,2.4,43
2011/12/13,20:00:00,293,���k��,2.8,-9.6,74.3,0,0,0.01,293,���k��,5.8,52
2011/12/13,21:00:00,293,���k��,2,-11.6,81.3,0,0,0.01,293,���k��,4.5,14
2011/12/13,22:00:00,293,���k��,1.4,-11.5,81.4,0,0,0.01,293,���k��,2.8,46
2011/12/13,23:00:00,315,�k��,2,-12.3,85.3,0,0,0.01,293,���k��,3.1,33
2011/12/13,0:00:00,315,�k��,2.9,-9.9,77.3,0,0,0.01,315,�k��,4.2,56
2011/12/14,1:00:00,293,���k��,2.5,-12.7,85.2,0,0,0.01,270,��,3.9,19
2011/12/14,2:00:00,315,�k��,2.5,-12.5,85.7,0,0,0.01,315,�k��,4,9
2011/12/14,3:00:00,293,���k��,2.4,-13.2,84,0,0,0.01,315,�k��,3.9,3
2011/12/14,4:00:00,293,���k��,2.1,-13,86.1,0,0,0.01,293,���k��,3.9,18
2011/12/14,5:00:00,315,�k��,2.8,-11.6,85.4,0,0,0.01,315,�k��,3.6,56
2011/12/14,6:00:00,293,���k��,2.7,-11.7,85.8,0,0,0.01,315,�k��,4.1,50
2011/12/14,7:00:00,293,���k��,1.5,-11.1,83.8,0,0,0.01,293,���k��,3.6,24
2011/12/14,8:00:00,293,���k��,2.7,-10.1,80.4,0,0,0.05,315,�k��,4.4,47
2011/12/14,9:00:00,270,��,1.9,-8.6,75.4,0,22,0.12,293,���k��,4,21
2011/12/14,10:00:00,270,��,1.4,-5.9,67.5,0,46,0.29,315,�k��,3.8,27
2011/12/14,11:00:00,45,�k��,0.6,-2.5,57.4,0,60,0.41,293,���k��,2.4,7
2011/12/14,12:00:00,90,��,2.8,0.8,56.9,0,60,0.48,90,��,4.3,55
2011/12/14,13:00:00,90,��,2.3,2.2,67.4,0,60,0.44,113,���쓌,4.1,11
2011/12/14,14:00:00,45,�k��,1.1,1.6,68.2,0,60,0.31,90,��,4.5,8
2011/12/14,15:00:00,23,�k�k��,1.1,0.7,69.6,0,34,0.15,45,�k��,2.3,16
2011/12/14,16:00:00,338,�k�k��,0.3,-2.6,76.7,0,0,0.04,23,�k�k��,1.8,35
2011/12/14,17:00:00,248,���쐼,0.6,-4.4,89.3,0,0,0.01,225,�쐼,1.4,44
2011/12/14,18:00:00,293,���k��,0.5,-4.6,87.2,0,0,0.01,293,���k��,3.5,42
2011/12/14,19:00:00,315,�k��,1.2,-4.6,89.6,0,0,0.01,270,��,3.5,16
2011/12/14,20:00:00,270,��,2.1,-4.6,86.7,0,0,0.01,270,��,3.4,31
2011/12/14,21:00:00,293,���k��,2.5,-3.6,85.6,0,0,0.01,315,�k��,4.1,42
2011/12/14,22:00:00,315,�k��,1.8,-4.4,90.3,0,0,0.01,315,�k��,5.4,13
2011/12/14,23:00:00,315,�k��,2.5,-4.2,90.9,0,0,0.01,315,�k��,4.6,45
2011/12/14,0:00:00,315,�k��,2.5,-4.6,91.6,0,0,0.01,315,�k��,6.2,35
2011/12/15,1:00:00,293,���k��,2.6,-5.6,89.5,0,0,0.01,315,�k��,5.7,15
2011/12/15,2:00:00,315,�k��,1.3,-6.2,90.4,0,0,0.01,315,�k��,5.4,16
2011/12/15,3:00:00,315,�k��,2.2,-8.1,96.4,0,0,0.01,293,���k��,3.7,58
2011/12/15,4:00:00,293,���k��,2.6,-8.7,95.8,0,0,0.01,315,�k��,4.8,9
2011/12/15,5:00:00,315,�k��,1.7,-7.7,95.9,0,0,0.01,315,�k��,5.2,28
2011/12/15,6:00:00,293,���k��,2.8,-8.1,96.4,0,0,0.01,270,��,5,43
2011/12/15,7:00:00,315,�k��,1.4,-10,94.8,0,0,0.01,293,���k��,4.3,6
2011/12/15,8:00:00,270,��,1.6,-8.2,93.1,0,12,0.08,293,���k��,3.6,4
2011/12/15,9:00:00,270,��,2,-5.1,84.9,0,60,0.22,270,��,4.1,44
2011/12/15,10:00:00,23,�k�k��,1.4,1.1,74.1,0,60,0.28,270,��,6.3,28
2011/12/15,11:00:00,248,���쐼,5.2,3.9,56.8,0,60,0.36,225,�쐼,9.2,57
2011/12/15,12:00:00,248,���쐼,5.5,4,50.4,0,60,0.41,248,���쐼,9.7,6
2011/12/15,13:00:00,270,��,6.4,3.4,60.6,0,60,0.44,270,��,11.3,38
2011/12/15,14:00:00,315,�k��,3.5,0.4,75.2,0,56,0.27,315,�k��,9.5,5
2011/12/15,15:00:00,293,���k��,3.6,0.2,63.1,0,52,0.2,315,�k��,6.5,20
2011/12/15,16:00:00,270,��,4.7,-1.1,60.8,0,0,0.03,270,��,9.7,20